Altus AFB, OK

3:54 AM CDT on June 29, 2017 (GMT -0500)
Altus Air Force Base

Weather History for KLTS - September, 2013

Change the Weather History Date:

Saturday, September 21, 2013

  Actual Average Record
Temperature  
Mean Temperature 67 °F -  
Max Temperature 82 °F 83 °F 100 °F (1998)
Min Temperature 52 °F 59 °F 48 °F (1999)
Cooling Degree Days 2    
Growing Degree Days 17 (Base 50)    
Moisture  
Dew Point 51 °F    
Average Humidity 69    
Maximum Humidity 100    
Minimum Humidity 28    
Precipitation  
Precipitation 0.00 in - - ()
Sea Level Pressure  
Sea Level Pressure 30.00 in    
Wind  
Wind Speed 5 mph (North)    
Max Wind Speed 8 mph    
Max Gust Speed -    
Visibility 9 miles    
Events      
Averages and records for this station are not official NWS values.
T = Trace of Precipitation, MM = Missing Value Source: NWS Daily Summary

Daily Weather History Graph

Daily Weather History Graph

Search for Another Location

Airport or City:

Trip Planner

Search our weather history database for the weather conditions in past years. The results will help you decide how hot, cold, wet, or windy it might be!

Date:

Astronomy

Sep. 21, 2013 Rise Set
Actual Time 7:24 AM CDT 7:34 PM CDT
Civil Twilight 6:59 AM CDT 8:00 PM CDT
Nautical Twilight 6:30 AM CDT 8:29 PM CDT
Astronomical Twilight 6:00 AM CDT 8:59 PM CDT
Moon 8:55 PM CDT (9/21) 9:37 AM CDT (9/21)
Length of Visible Light 13h 00m
Length of Day
12h 10m
Waning Gibbous, 94% of the Moon is Illuminated
Sep 21
Waning Gibbous
Sep 26
Last Quarter
Oct 4
New
Oct 11
First Quarter
Oct 18
Full

Hourly Weather History & Observations

Time (CDT) Temp. Dew Point Humidity Pressure Visibility Wind Dir Wind Speed Gust Speed Precip Events Conditions
12:58 AM 59.0 °F 52.7 °F 80% 30.04 in 10.0 mi North 6.9 mph - N/A   Clear
1:58 AM 55.8 °F 52.5 °F 89% 30.03 in 10.0 mi NNW 6.9 mph - N/A   Clear
2:58 AM 56.3 °F 53.1 °F 89% 30.03 in 10.0 mi NW 6.9 mph - N/A   Clear
3:58 AM 56.1 °F 52.5 °F 88% 30.03 in 10.0 mi NNW 5.8 mph - N/A   Clear
4:18 AM 55.4 °F 51.8 °F 88% 30.05 in 6.0 mi NNW 5.8 mph - N/A   Clear
4:23 AM 55.4 °F 51.8 °F 88% 30.05 in 9.0 mi NNW 5.8 mph - N/A   Clear
4:28 AM 53.6 °F 51.8 °F 94% 30.05 in 9.0 mi NNW 5.8 mph - N/A   Clear
4:58 AM 54.0 °F 52.9 °F 96% 30.03 in 7.0 mi NNW 5.8 mph - N/A   Clear
5:03 AM 53.6 °F 51.8 °F 94% 30.05 in 7.0 mi NNW 5.8 mph - N/A   Clear
5:08 AM 53.6 °F 53.6 °F 100% 30.05 in 5.0 mi NNW 5.8 mph - N/A   Clear
5:13 AM 53.6 °F 53.6 °F 100% 30.05 in 5.0 mi NNW 4.6 mph - N/A   Clear
5:58 AM 52.7 °F 51.8 °F 97% 30.04 in 8.0 mi NNW 6.9 mph - N/A   Clear
6:58 AM 52.0 °F 50.9 °F 96% 30.04 in 10.0 mi NNW 4.6 mph - N/A   Clear
7:58 AM 52.0 °F 51.6 °F 99% 30.06 in 10.0 mi NNW 2.3 mph - N/A   Clear
8:58 AM 58.6 °F 53.4 °F 83% 30.06 in 10.0 mi North 1.2 mph - N/A   Clear
9:58 AM 64.9 °F 54.1 °F 68% 30.06 in 10.0 mi West 2.3 mph - N/A   Clear
10:58 AM 70.7 °F 50.9 °F 49% 30.06 in 10.0 mi Variable 3.5 mph - N/A   Clear
11:58 AM 74.5 °F 49.6 °F 42% 30.04 in 10.0 mi West 2.3 mph - N/A   Clear
12:58 PM 77.4 °F 46.6 °F 34% 30.02 in 10.0 mi WNW 1.2 mph - N/A   Clear
1:58 PM 79.7 °F 48.2 °F 33% 29.99 in 10.0 mi NE 5.8 mph - N/A   Clear
2:58 PM 80.1 °F 45.5 °F 30% 29.96 in 10.0 mi Variable 1.2 mph - N/A   Clear
3:58 PM 82.2 °F 45.7 °F 28% 29.94 in 10.0 mi ESE 6.9 mph - N/A   Clear
4:58 PM 82.2 °F 46.2 °F 28% 29.92 in 10.0 mi SSE 5.8 mph - N/A   Clear
5:58 PM 82.0 °F 46.4 °F 29% 29.91 in 10.0 mi East 4.6 mph - N/A   Clear
6:58 PM 80.1 °F 48.2 °F 33% 29.91 in 10.0 mi ENE 4.6 mph - N/A   Clear
7:58 PM 71.6 °F 51.1 °F 48% 29.91 in 10.0 mi ESE 5.8 mph - N/A   Clear
8:58 PM 67.8 °F 50.5 °F 54% 29.92 in 10.0 mi South 3.5 mph - N/A   Clear
9:58 PM 64.4 °F 52.0 °F 64% 29.92 in 10.0 mi SSE 2.3 mph - N/A   Clear
10:58 PM 61.3 °F 54.5 °F 78% 29.92 in 10.0 mi East 8.1 mph - N/A   Clear
11:58 PM 59.2 °F 53.4 °F 81% 29.91 in 10.0 mi ESE 5.8 mph - N/A   Clear